Dewpoint
60 57 54 44 34 35 31 31 33 29 28 30 31 31 35 41 40 37 61 66 70 71 71 72 72 72 71 70 69 69 68 67 66 65 65 63 63 62 60 61 62 62 62 62 60 63 66 66 65
59 54 46 41 34 28 27 32 28 29 30 30 30 29 34 46 53 62 63 69 70 70 71 71 71 71 70 69 69 68 68 68 67 66 65 63 62 61 60 58 61 62 64 63 63 66 66 65 64
57 55 41 37 34 29 25 29 29 28 29 29 28 31 41 46 54 61 66 69 70 70 71 71 71 70 69 69 69 68 68 68 68 67 64 62 62 60 59 59 59 63 65 65 65 64 63 62 61
50 48 42 36 34 32 31 30 29 28 28 30 31 35 47 52 56 61 68 69 69 70 70 71 71 70 69 69 67 67 67 66 66 66 63 62 60 60 58 58 58 62 63 63 62 61 61 61 61
46 44 37 35 33 33 33 32 31 30 28 29 31 33 46 54 57 67 68 69 68 70 70 71 70 70 69 68 66 65 65 64 66 64 62 59 60 60 59 59 58 59 61 61 61 62 62 61 62
40 42 36 29 30 31 31 31 30 28 28 29 30 39 46 56 61 65 68 67 68 69 70 70 70 70 69 67 65 64 64 63 64 62 59 60 62 62 59 60 58 59 60 61 61 61 61 61 62
38 38 37 33 31 31 30 32 29 28 27 28 29 33 49 55 57 63 66 67 68 69 69 69 69 69 68 66 66 64 64 63 62 63 63 63 64 63 61 60 60 61 61 61 61 61 61 61 62
39 38 34 33 32 30 31 28 27 26 26 30 29 40 49 53 57 63 66 67 67 67 68 69 68 68 67 66 66 64 64 64 63 64 64 65 65 65 64 62 62 61 62 62 62 61 61 62 62
40 36 34 32 31 30 31 32 31 30 28 28 31 42 49 55 57 63 66 66 66 67 68 68 67 67 66 66 66 65 64 65 65 64 64 63 64 65 65 63 63 63 63 63 63 63 63 63 62
39 36 36 37 36 34 33 35 34 31 28 28 38 48 55 56 56 58 64 65 65 65 67 67 67 67 67 66 66 65 64 64 64 64 63 62 62 65 64 63 63 64 64 64 63 63 63 62 60
39 37 37 38 39 38 37 37 38 34 29 30 34 49 51 55 56 57 61 64 65 66 66 67 66 67 66 66 67 66 65 63 62 63 62 62 61 65 64 63 63 64 63 63 64 62 60 54 58
38 38 37 37 38 38 36 38 38 38 35 38 39 37 37 48 52 55 58 60 62 65 65 66 66 66 66 66 66 66 65 63 62 61 62 61 60 64 62 63 62 62 61 60 60 59 52 46 46
37 37 37 38 38 37 36 37 38 38 39 39 38 37 37 37 42 48 54 57 59 62 65 66 66 65 65 66 65 65 65 64 62 59 60 61 59 62 62 61 61 60 60 59 58 55 46 38 32
38 36 36 37 37 37 36 35 35 36 38 37 37 36 36 36 37 40 42 49 55 59 61 65 66 65 65 66 65 65 65 64 63 60 58 59 59 61 60 59 58 58 58 57 55 48 41 32 29
39 37 37 37 37 36 36 34 34 36 36 36 35 36 36 35 35 36 38 41 42 52 59 62 65 65 64 65 65 65 65 64 63 61 58 58 57 58 58 57 56 56 54 52 46 37 32 30 27
37 36 33 35 35 35 35 31 34 35 35 35 35 35 35 35 35 35 35 37 39 42 47 60 63 64 64 65 66 66 65 64 63 61 58 57 56 55 55 55 55 51 49 43 37 33 30 28 26
33 30 31 32 34 34 34 32 32 34 34 32 33 33 33 34 35 35 35 35 35 37 41 54 60 63 64 65 65 65 65 64 63 61 58 57 56 56 55 55 53 49 44 39 35 31 29 26 24
31 30 30 29 28 32 31 33 33 32 32 32 32 31 31 33 34 35 35 35 35 35 37 42 58 61 63 64 64 65 64 64 63 61 58 56 57 56 55 53 49 44 39 34 30 28 26 25 22
31 30 28 28 29 26 25 25 27 29 29 28 28 28 28 29 32 34 34 33 34 34 34 38 44 59 62 63 63 64 63 63 63 62 59 58 58 56 54 50 44 39 36 33 28 26 23 20 23
34 32 30 29 28 26 26 25 26 26 26 26 26 26 27 27 28 30 32 33 33 33 33 35 40 48 60 63 63 63 63 64 63 62 61 59 57 54 52 47 41 36 34 30 27 26 25 22 22
32 29 28 27 27 27 25 20 20 23 25 26 26 27 27 27 26 27 29 29 30 31 34 35 36 43 55 61 62 60 59 58 60 61 61 60 56 53 51 45 40 35 32 30 27 27 25 22 21
27 28 28 27 26 21 26 15 21 21 22 22 23 25 26 27 26 26 27 27 28 29 31 34 37 40 46 57 61 60 59 59 60 60 57 55 52 52 49 44 41 37 34 29 28 28 29 25 20
28 28 27 27 26 24 24 22 17 22 18 19 17 17 19 26 27 27 27 27 27 27 28 30 33 38 44 51 60 60 59 59 55 54 54 51 49 50 46 43 39 37 35 31 29 29 28 25 23
30 28 28 28 25 18 21 22 14 17 17 15 17 19 19 22 25 26 27 28 28 30 30 30 33 38 41 47 55 59 59 55 53 51 50 47 47 48 45 39 39 38 34 33 30 26 24 22 22
28 24 20 18 19 11 23 23 19 21 21 22 21 20 19 21 21 25 29 31 32 32 33 33 32 31 37 43 51 56 57 55 53 51 49 47 44 42 41 40 38 36 33 29 27 26 25 22 19
27 24 18 9 16 20 22 19 16 21 20 18 19 22 24 25 24 23 31 32 32 32 32 34 34 34 34 40 50 56 55 54 52 50 48 47 44 40 38 37 36 33 30 30 30 28 26 24 21
29 25 27 23 20 19 19 18 15 21 21 22 25 26 27 28 28 27 30 34 34 33 33 34 35 36 36 40 53 53 52 51 49 46 46 42 40 38 37 35 32 30 30 29 29 27 24 22 20
27 29 24 22 9 6 14 16 11 18 21 22 26 27 30 34 33 30 30 35 35 35 34 37 39 39 38 49 50 49 49 48 46 44 43 40 37 35 35 32 29 29 28 27 25 20 19 18 18
29 27 26 23 20 14 13 10 19 19 23 25 27 29 34 36 35 34 35 32 36 36 35 35 40 43 49 49 46 46 46 45 44 43 40 36 33 32 29 26 26 26 24 22 20 19 16 15 16
30 28 25 20 16 22 22 16 24 24 24 26 27 32 36 37 36 36 33 35 38 38 41 43 46 49 47 44 43 43 42 42 40 39 35 32 30 28 26 24 23 23 22 16 16 16 19 22 20
Wind_Speed
8 9 3 4 1 2 5 8 6 16 7 4 4 6 4 2 3 2 1 16 23 21 19 19 20 20 21 21 21 19 19 18 18 16 14 13 13 12 11 11 10 9 8 14 15 11 16 14 14
5 4 4 3 4 8 11 7 17 15 16 11 4 5 4 2 2 8 13 17 26 22 18 18 21 20 21 21 21 20 19 18 18 18 17 14 13 12 11 10 11 10 11 13 14 15 16 14 12
3 2 4 5 5 16 9 9 8 12 8 7 2 3 6 5 2 18 13 22 22 21 18 18 21 20 20 20 20 19 18 17 17 19 16 15 13 12 11 11 11 10 10 13 12 13 12 12 10
2 1 3 7 16 16 18 4 1 16 11 5 3 6 2 2 11 11 25 25 23 18 17 20 20 20 20 19 19 18 18 16 15 17 16 14 14 13 12 11 11 12 12 12 11 11 10 9 8
2 2 5 8 20 11 16 14 14 17 12 4 4 3 2 2 4 26 25 23 24 18 17 19 20 20 20 20 19 18 18 17 18 17 16 15 14 13 12 12 12 13 12 12 11 10 9 8 7
5 2 6 20 20 11 16 15 10 16 19 7 5 8 3 3 20 20 20 23 24 24 21 18 21 21 20 19 19 18 18 18 18 17 17 17 15 13 13 13 13 13 12 11 10 10 8 7 5
4 5 10 10 19 16 21 3 9 17 21 12 6 6 2 8 14 18 17 16 19 22 22 19 18 19 20 19 18 17 17 17 18 18 17 16 15 14 13 13 13 12 12 11 9 8 7 7 5
5 2 5 9 12 13 10 2 9 11 19 6 6 8 8 14 17 19 17 16 16 18 19 18 17 17 16 16 17 17 18 18 18 17 16 15 17 15 13 12 11 11 10 9 9 8 8 6 4
5 7 13 12 14 10 5 5 7 4 6 4 2 9 9 21 20 20 17 14 15 15 16 17 17 16 16 15 15 17 17 16 16 15 16 15 13 14 14 12 11 10 10 9 8 7 6 4 3
10 10 11 6 11 5 9 3 8 8 4 1 5 5 13 21 20 24 22 21 19 19 18 18 19 18 18 15 14 14 14 14 14 14 15 12 11 13 13 14 13 12 10 9 8 7 6 4 2
6 11 17 12 11 3 5 9 4 5 9 2 2 15 13 15 20 22 24 27 29 21 18 19 19 19 19 16 14 12 12 14 14 15 15 13 10 12 12 12 11 10 10 7 6 5 4 3 5
7 8 16 6 13 7 10 5 5 7 8 6 2 6 6 10 13 20 26 24 23 24 24 22 21 21 20 16 16 15 14 14 14 15 15 14 12 13 14 13 13 11 9 8 7 4 5 5 7
10 9 8 11 15 7 8 10 12 13 15 17 4 5 9 8 17 15 12 16 22 25 25 25 24 23 22 19 17 16 16 16 16 16 15 14 14 15 15 14 14 13 10 10 7 7 6 7 7
2 14 15 7 6 5 8 12 11 5 13 18 16 17 9 12 12 11 11 17 16 20 24 25 25 23 22 22 21 20 18 18 16 15 16 18 15 15 15 15 15 13 12 11 9 9 8 7 6
4 4 4 8 6 6 3 26 18 16 17 20 26 22 18 14 19 18 17 15 14 20 17 24 27 25 24 24 22 20 18 18 17 17 17 19 17 18 17 17 15 13 12 13 11 9 8 7 6
7 2 9 5 5 7 10 30 5 19 20 25 25 26 24 19 21 23 23 18 17 11 16 21 23 25 25 23 21 19 18 17 16 17 16 20 20 19 18 16 15 14 14 15 14 11 7 6 4
2 7 6 10 16 15 16 7 14 24 19 22 23 22 23 26 21 23 26 25 20 17 17 17 22 27 26 25 20 19 19 17 16 14 16 20 20 18 17 16 16 17 16 15 14 7 6 4 2
8 8 6 11 5 9 14 19 19 12 12 20 23 23 22 22 27 23 21 26 26 20 17 20 21 24 26 21 19 17 15 16 18 17 17 20 18 19 17 16 18 16 16 14 11 10 5 4 3
8 3 7 9 7 7 13 15 19 20 20 24 23 25 26 26 24 19 18 20 23 24 23 19 22 23 23 19 20 18 22 19 17 16 17 19 19 21 20 17 18 17 18 17 15 8 7 3 2
9 10 13 12 5 6 11 22 26 27 24 29 34 30 25 19 18 21 20 19 15 19 22 23 20 23 25 24 23 17 21 14 17 17 15 16 22 22 22 23 20 19 17 16 15 12 6 3 2
8 8 5 7 8 1 12 20 18 14 15 25 27 26 23 26 27 23 23 22 21 20 17 17 21 20 23 25 17 11 13 6 8 15 19 17 19 22 20 20 21 21 17 19 16 13 10 8 2
7 1 2 3 4 7 7 11 11 13 17 14 10 14 23 24 22 23 22 24 23 22 19 16 16 16 19 21 20 22 23 19 17 20 15 14 16 19 19 20 19 18 18 17 13 9 7 7 7
4 8 6 3 3 6 3 6 11 8 8 2 3 8 11 20 19 22 22 23 19 16 17 16 16 17 15 23 24 21 20 17 13 15 20 16 11 11 16 18 20 19 16 15 14 11 10 5 7
11 6 6 5 4 6 4 8 8 3 4 1 7 19 12 1 7 13 15 12 6 4 5 6 8 12 16 18 22 27 21 20 19 17 18 16 14 12 12 14 15 15 17 16 13 11 11 8 7
10 7 1 2 4 11 4 7 14 13 16 11 17 17 8 10 5 3 9 11 9 7 4 1 4 11 10 16 18 21 28 28 28 27 22 22 18 15 15 15 15 15 17 15 13 12 11 9 10
8 7 5 4 4 5 3 6 3 7 11 8 7 14 16 18 15 10 6 4 5 4 2 2 5 8 14 14 21 21 19 20 18 21 21 19 19 18 16 16 15 15 17 16 13 13 9 9 9
5 5 3 2 2 3 5 7 11 8 12 12 15 20 21 20 18 14 5 7 8 5 6 5 8 13 17 19 15 17 18 21 22 21 20 17 16 17 17 16 15 15 16 16 16 11 12 10 8
4 10 3 1 2 5 6 8 10 3 6 6 17 23 25 25 26 18 10 12 13 12 9 8 10 15 19 13 16 18 21 21 22 22 23 22 19 20 19 18 17 15 15 14 14 11 10 9 7
7 4 2 4 4 2 6 8 6 5 5 4 12 14 11 16 22 22 23 18 20 12 10 10 10 10 7 15 17 18 17 18 20 20 21 21 21 22 21 19 19 16 15 14 14 11 7 6 5
8 7 8 4 3 1 1 11 5 4 3 13 24 16 23 17 20 18 20 16 10 12 10 10 6 7 13 17 18 18 18 17 20 20 21 20 22 20 21 20 19 16 14 14 14 12 8 4 4
Wind_Direction
318 325 355 33 226 55 238 251 247 283 322 266 162 101 107 116 220 227 343 155 137 146 150 151 150 148 144 140 142 140 142 145 144 142 139 135 131 127 125 128 124 117 106 119 142 145 150 141 128
337 333 55 102 179 222 249 231 256 268 252 268 152 113 109 110 154 127 127 152 143 145 150 152 149 150 148 147 150 148 150 151 152 149 142 141 139 131 128 130 131 129 120 117 125 135 129 123 123
337 347 158 178 187 219 245 233 250 306 287 247 107 70 129 170 194 158 147 149 141 146 149 152 154 151 151 151 151 151 150 151 152 150 147 145 141 135 132 134 137 133 122 121 122 118 121 124 130
153 87 50 211 215 229 231 183 358 326 303 256 152 75 66 197 164 159 145 145 139 144 144 151 155 153 154 153 154 155 155 154 163 156 148 148 142 137 136 138 140 143 136 132 126 122 123 132 132
79 115 196 214 232 242 248 262 282 288 289 245 139 129 125 96 140 142 146 144 143 142 145 153 157 157 157 158 156 157 157 156 150 152 154 151 144 140 138 140 144 147 148 142 138 138 136 129 118
166 145 190 216 230 249 263 261 270 269 276 268 142 133 155 86 137 150 149 151 151 151 152 159 160 161 161 162 159 159 160 162 162 161 157 153 148 145 144 143 145 145 146 145 143 143 141 135 125
185 174 215 219 234 255 252 168 247 268 262 239 169 122 138 154 142 148 150 154 152 152 154 162 164 163 164 163 163 162 162 160 163 160 157 156 154 155 154 154 152 151 149 148 146 146 146 145 148
168 168 213 225 207 242 252 285 273 254 259 260 174 156 173 187 153 139 135 147 151 158 161 160 163 164 164 165 167 166 168 165 165 166 162 163 162 165 164 164 165 161 160 159 159 159 158 158 160
138 211 221 223 205 230 266 342 315 288 248 162 79 152 186 161 137 133 133 142 154 164 165 163 161 163 161 165 172 171 172 173 170 164 165 167 171 175 170 175 175 172 173 175 171 166 166 170 156
198 207 218 227 222 262 281 305 313 324 281 72 78 104 131 154 162 152 162 168 173 176 178 170 167 166 164 170 173 174 176 180 180 177 179 178 181 178 177 180 182 183 185 188 180 174 181 189 195
198 221 220 245 276 281 320 312 308 292 261 17 93 154 161 175 181 163 175 177 183 182 179 182 177 173 170 173 173 177 179 183 187 189 189 185 182 180 182 184 186 189 193 192 187 180 190 187 179
231 207 231 243 265 291 296 274 241 253 247 277 330 340 296 217 208 193 177 186 180 183 187 185 184 178 180 176 177 180 181 186 191 198 195 188 185 183 187 191 192 192 193 193 191 182 165 123 125
235 249 248 251 267 261 281 258 254 232 258 282 255 200 270 270 235 233 239 197 186 186 190 189 187 186 182 178 182 182 189 190 194 197 197 193 191 187 189 199 194 195 190 196 192 184 152 122 112
232 230 249 256 246 247 267 275 257 249 241 270 284 282 246 269 258 254 231 229 209 198 191 188 190 191 185 184 183 185 191 195 195 194 193 194 191 189 189 197 200 197 194 198 183 171 153 122 106
165 241 251 227 240 257 300 271 239 246 259 264 277 279 277 250 269 260 250 241 217 216 200 188 192 191 190 190 187 187 191 192 191 195 191 190 194 191 192 195 197 195 185 164 149 137 127 111 93
170 125 252 243 244 247 199 253 212 236 247 261 262 269 276 265 245 259 266 251 248 221 209 203 193 191 193 195 189 189 192 192 191 190 192 191 195 192 191 187 189 168 157 153 150 143 118 105 104
66 214 245 285 247 235 198 269 248 243 240 251 258 263 266 266 263 248 250 262 255 236 219 209 195 190 194 197 193 194 189 190 191 186 187 192 193 187 177 178 174 170 159 161 152 137 134 144 137
197 206 234 241 289 216 236 248 258 264 241 241 253 260 264 261 257 245 236 246 258 250 233 214 197 197 197 191 190 194 185 190 187 192 187 185 187 176 174 172 169 163 158 153 146 147 111 136 158
118 133 267 264 273 319 275 276 273 268 270 266 256 256 256 255 259 266 253 242 247 259 250 225 212 194 192 184 180 186 196 193 193 192 191 181 176 173 172 169 166 165 165 166 156 131 144 123 115
246 281 280 284 245 311 292 286 276 265 253 246 250 254 252 257 257 250 251 249 240 245 247 250 226 209 191 196 191 182 190 198 194 191 190 187 177 173 173 169 171 169 160 159 163 158 149 122 112
232 233 242 268 327 104 327 285 265 272 254 252 246 248 253 248 253 253 246 242 245 244 245 243 241 218 200 201 187 128 127 101 158 188 192 194 183 170 172 171 166 164 161 172 175 170 166 160 104
196 114 169 28 345 273 27 290 294 292 291 285 272 258 253 247 246 247 245 249 248 246 238 240 241 235 202 191 193 192 196 187 196 192 188 177 177 169 169 166 159 164 162 165 167 163 165 149 165
167 95 88 76 47 339 248 225 278 310 303 350 137 336 310 246 240 250 246 240 248 257 253 246 242 233 221 189 191 199 200 194 168 166 169 164 149 166 158 159 156 158 154 150 154 157 162 160 164
137 81 45 54 54 266 236 206 281 260 300 342 310 329 336 179 236 252 256 243 234 174 207 245 263 258 239 205 195 195 186 174 165 160 162 156 147 150 150 144 148 145 142 146 153 152 151 147 142
117 103 272 250 223 233 151 179 255 270 278 282 312 326 11 32 41 126 151 149 150 146 138 174 248 261 246 235 211 197 185 181 181 170 165 159 155 160 160 150 146 145 140 136 136 133 128 137 143
149 157 185 241 230 293 288 235 234 280 297 328 46 56 37 19 10 339 269 216 186 185 168 359 291 293 276 248 219 198 188 177 167 164 164 168 168 157 146 142 143 142 133 130 129 129 127 133 128
158 192 166 127 43 293 271 281 301 51 73 66 50 19 1 350 347 347 312 289 285 257 266 291 297 286 279 256 210 179 164 161 161 154 147 145 137 137 136 140 137 135 129 133 134 138 136 145 135
126 148 134 72 236 263 284 275 235 177 70 64 22 360 345 338 330 318 282 259 254 256 261 276 285 285 270 223 175 170 167 158 151 149 147 147 140 142 141 139 134 132 128 129 129 128 134 138 141
161 187 134 139 177 252 316 272 232 168 60 77 352 334 315 316 313 306 305 278 251 257 268 283 305 299 201 163 155 152 148 143 140 146 141 145 143 146 145 140 134 134 130 130 125 123 127 133 131
186 189 179 172 198 186 236 271 259 305 241 328 326 328 326 322 307 313 306 297 274 282 288 292 295 181 171 151 141 137 133 137 136 144 142 143 143 144 140 135 129 126 129 125 128 127 126 138 192